Вернуться в каталог

COSMOS 1691 DEB

АктивенPO
NORAD 43316·DEBRIS·🇷🇺 Russia

Запущен Oct 9, 1985 с Plesetsk Cosmodrome

Loading…

Ближайшие Пролёты (ближайшие 24 часа)

TLE

СвежийSource: Space-Track

Эпоха: Sep 14, 2026, 11:06 UTC

1 43316U 85094AA  26257.46306657  .00000502  00000-0  24307-2 0  9997
2 43316  82.6047 146.8471 0007824 227.8282 132.2151 12.71368625 86908

Отслеживайте COSMOS 1691 DEB в реальном времени с AllMySat

Download on the App Store